KF0ZH Weather Reports


Display with metric or nautical units.
time (UTC)temp
F
wind
direction
speed
MPH
gust
MPH
rain 1hr
in
rain 24hr
in
rain mn
in
humidity
%
barometer
mb
20220524034305 56 181 0.0 5.0 0.00 0.00 0.00 57 1022.7
20220524033803 57 201 0.0 0.0 0.00 0.00 0.00 57 1022.7
20220524033304 57 201 0.0 0.0 0.00 0.00 0.00 57 1022.7
20220524032803 57 201 0.0 0.0 0.00 0.00 0.00 57 1022.7
20220524032304 57 201 0.0 0.0 0.00 0.00 0.00 57 1022.7
20220524031803 57 201 0.0 0.0 0.00 0.00 0.00 58 1022.6
20220524031306 57 201 0.0 0.0 0.00 0.00 0.00 58 1022.6
20220524030803 57 201 0.0 0.0 0.00 0.00 0.00 57 1022.5
20220524030303 57 201 0.0 0.0 0.00 0.00 0.00 57 1022.5
20220524025804 57 201 0.0 0.0 0.00 0.00 0.00 58 1022.4
20220524025303 57 201 0.0 0.0 0.00 0.00 0.00 58 1022.4
20220524024803 57 201 0.0 0.0 0.00 0.00 0.00 58 1022.4
20220524024303 58 201 0.0 0.0 0.00 0.00 0.00 58 1022.4
20220524023803 57 201 0.0 0.0 0.00 0.00 0.00 58 1022.4
20220524023304 58 201 0.0 0.0 0.00 0.00 0.00 57 1022.4
20220524022803 57 201 0.0 0.0 0.00 0.00 0.00 57 1022.4
20220524022303 58 201 0.0 0.0 0.00 0.00 0.00 57 1022.3
20220524021803 58 201 0.0 0.0 0.00 0.00 0.00 57 1022.3
20220524021304 59 201 0.0 0.0 0.00 0.00 0.00 56 1022.2
20220524020804 59 201 0.0 0.0 0.00 0.00 0.00 56 1022.2
20220524020303 59 201 0.0 0.0 0.00 0.00 0.00 55 1022.2
20220524015804 59 201 0.0 0.0 0.00 0.00 0.00 55 1022.2
20220524015305 59 201 0.0 0.0 0.00 0.00 0.00 55 1022.1
20220524014805 59 201 0.0 0.0 0.00 0.00 0.00 54 1022.1
20220524014303 60 201 0.0 0.0 0.00 0.00 0.00 54 1022.1
20220524013803 60 201 0.0 0.0 0.00 0.00 0.00 54 1022.1
20220524013304 61 201 0.0 0.0 0.00 0.00 0.00 54 1022.1
20220524012804 61 201 0.0 0.0 0.00 0.00 0.00 53 1022.1
20220524012304 61 201 0.0 0.0 0.00 0.00 0.00 52 1022.1
20220524011804 62 201 0.0 0.0 0.00 0.00 0.00 51 1022.1
20220524011303 62 201 0.0 0.0 0.00 0.00 0.00 51 1022.1
20220524010803 62 201 0.0 5.0 0.00 0.00 0.00 50 1022.1
20220524010304 62 163 0.0 0.0 0.00 0.00 0.00 50 1022.1
20220524005803 63 163 0.0 0.0 0.00 0.00 0.00 50 1022.2
20220524005303 62 174 6.0 7.0 0.00 0.00 0.00 48 1022.3
20220524004803 63 142 0.0 0.0 0.00 0.00 0.00 50 1022.3
20220524004303 63 142 0.0 0.0 0.00 0.00 0.00 49 1022.3
20220524003803 63 142 0.0 0.0 0.00 0.00 0.00 49 1022.3
20220524003303 63 142 0.0 0.0 0.00 0.00 0.00 48 1022.3
20220524002806 63 142 0.0 0.0 0.00 0.00 0.00 48 1022.3
20220524002303 63 142 0.0 0.0 0.00 0.00 0.00 47 1022.3
20220524001803 63 142 0.0 0.0 0.00 0.00 0.00 47 1022.3
20220524001305 64 142 0.0 0.0 0.00 0.00 0.00 48 1022.3
20220524000803 63 142 0.0 0.0 0.00 0.00 0.00 48 1022.2
20220524000304 64 142 0.0 0.0 0.00 0.00 0.00 47 1022.3
20220523235806 64 142 0.0 0.0 0.00 0.00 0.00 46 1022.3
20220523235303 64 142 0.0 0.0 0.00 0.00 0.00 48 1022.3
20220523234803 64 142 0.0 0.0 0.00 0.00 0.00 48 1022.3
20220523234304 64 142 0.0 0.0 0.00 0.00 0.00 47 1022.4
20220523233803 64 142 0.0 2.0 0.00 0.00 0.00 47 1022.4
20220523233303 64 142 0.0 0.0 0.00 0.00 0.00 48 1022.4
20220523232803 64 142 0.0 0.0 0.00 0.00 0.00 46 1022.5
20220523232303 64 142 0.0 0.0 0.00 0.00 0.00 48 1022.5
20220523231803 64 181 4.0 6.0 0.00 0.00 0.00 46 1022.5
20220523231303 64 195 0.0 0.0 0.00 0.00 0.00 48 1022.6
20220523230803 64 195 0.0 7.0 0.00 0.00 0.00 46 1022.6
20220523230303 65 213 0.0 6.0 0.00 0.00 0.00 45 1022.6
20220523225803 65 222 0.0 0.0 0.00 0.00 0.00 47 1022.6
20220523225303 64 222 0.0 0.0 0.00 0.00 0.00 47 1022.7
20220523224807 64 222 0.0 0.0 0.00 0.00 0.00 45 1022.7
20220523224305 65 222 0.0 0.0 0.00 0.00 0.00 45 1022.7
20220523223803 65 209 0.0 0.0 0.00 0.00 0.00 47 1022.7
20220523223306 65 209 0.0 0.0 0.00 0.00 0.00 48 1022.7
20220523222803 65 209 0.0 0.0 0.00 0.00 0.00 45 1022.6
20220523222303 65 209 0.0 0.0 0.00 0.00 0.00 46 1022.6
20220523221803 65 209 0.0 5.0 0.00 0.00 0.00 44 1022.6
20220523221303 65 191 4.0 7.0 0.00 0.00 0.00 46 1022.7
20220523220804 65 88 0.0 0.0 0.00 0.00 0.00 48 1022.7
20220523220303 65 54 4.0 5.0 0.00 0.00 0.00 46 1022.6
20220523215803 66 14 0.0 0.0 0.00 0.00 0.00 45 1022.6
20220523215303 66 14 0.0 6.0 0.00 0.00 0.00 46 1022.7
20220523214803 67 192 0.0 0.0 0.00 0.00 0.00 46 1022.7
20220523214303 67 192 0.0 0.0 0.00 0.00 0.00 44 1022.8
20220523213803 66 192 0.0 1.0 0.00 0.00 0.00 44 1022.9
20220523213303 65 192 0.0 0.0 0.00 0.00 0.00 45 1022.9
20220523212803 65 192 0.0 0.0 0.00 0.00 0.00 44 1022.9
20220523212303 65 192 0.0 5.0 0.00 0.00 0.00 44 1023.0
20220523211803 65 18 0.0 0.0 0.00 0.00 0.00 44 1023.0
20220523211303 64 18 0.0 0.0 0.00 0.00 0.00 45 1023.0
20220523210803 64 18 0.0 4.0 0.00 0.00 0.00 45 1023.0
20220523210303 64 180 0.0 0.0 0.00 0.00 0.00 45 1023.1
20220523205803 65 180 0.0 0.0 0.00 0.00 0.00 45 1023.2
20220523205303 65 180 0.0 0.0 0.00 0.00 0.00 44 1023.3
20220523204803 65 180 0.0 5.0 0.00 0.00 0.00 43 1023.4
20220523204303 66 181 0.0 4.0 0.00 0.00 0.00 45 1023.4
20220523203803 67 227 0.0 6.0 0.00 0.00 0.00 43 1023.4
20220523203303 66 182 0.0 0.0 0.00 0.00 0.00 42 1023.5
20220523202803 66 243 0.0 9.0 0.00 0.00 0.00 43 1023.5
20220523202303 65 253 0.0 0.0 0.00 0.00 0.00 43 1023.6
20220523201803 65 253 0.0 6.0 0.00 0.00 0.00 44 1023.6
20220523201303 65 232 0.0 5.0 0.00 0.00 0.00 43 1023.6
20220523200803 65 230 0.0 0.0 0.00 0.00 0.00 43 1023.7
20220523200303 66 230 3.0 9.0 0.00 0.00 0.00 45 1023.7
20220523195803 66 215 0.0 0.0 0.00 0.00 0.00 43 1023.8
20220523195304 65 239 0.0 7.0 0.00 0.00 0.00 45 1023.8
20220523194803 65 143 0.0 0.0 0.00 0.00 0.00 44 1023.9
20220523194305 65 160 0.0 7.0 0.00 0.00 0.00 42 1024.0
20220523193803 65 208 0.0 7.0 0.00 0.00 0.00 43 1024.0
20220523193303 65 210 5.0 6.0 0.00 0.00 0.00 43 1024.0
20220523192805 65 219 0.0 0.0 0.00 0.00 0.00 43 1024.1
20220523192303 65 219 0.0 0.0 0.00 0.00 0.00 44 1024.2
20220523191804 65 219 0.0 8.0 0.00 0.00 0.00 46 1024.3
20220523191303 64 142 0.0 9.0 0.00 0.00 0.00 46 1024.3
20220523190803 64 201 0.0 12.0 0.00 0.00 0.00 44 1024.5
20220523190303 64 85 0.0 5.0 0.00 0.00 0.00 46 1024.6
20220523185803 64 147 0.0 2.0 0.00 0.00 0.00 46 1024.5
20220523185303 64 164 0.0 9.0 0.00 0.00 0.00 46 1024.6
20220523184803 63 60 0.0 0.0 0.00 0.00 0.00 45 1024.7
20220523184303 63 60 0.0 0.0 0.00 0.00 0.00 45 1024.8
20220523183805 63 352 0.0 0.0 0.00 0.00 0.00 45 1024.9
20220523183303 62 352 0.0 0.0 0.00 0.00 0.00 47 1024.9
20220523182805 62 178 3.0 3.0 0.00 0.00 0.00 46
20220523182803 62 178 3.0 3.0 0.00 0.00 0.00 46 1024.9
20220523182304 62 178 0.0 0.0 0.00 0.00 0.00 45 1025.0
20220523181804 62 178 0.0 4.0 0.00 0.00 0.00 45 1025.2
20220523181303 62 88 3.0 10.0 0.00 0.00 0.00 43 1025.2
20220523180803 62 171 0.0 12.0 0.00 0.00 0.00 47 1025.2
20220523180532 62 160 10.0 11.0 0.00 0.00 0.00 45 1025.4
20220523180303 62 160 10.0 11.0 0.00 0.00 0.00 45 1025.4
20220523175803 61 158 0.0 12.0 0.00 0.00 0.00 46 1025.7
20220523175303 60 337 0.0 3.0 0.00 0.00 0.00 50 1025.7
20220523174803 60 8 0.0 0.0 0.00 0.00 0.00 47 1025.8
20220523174303 61 8 0.0 0.0 0.00 0.00 0.00 49 1026.0
20220523173803 62 8 0.0 3.0 0.00 0.00 0.00 44 1026.1
20220523173303 61 164 0.0 6.0 0.00 0.00 0.00 48 1026.1
20220523172803 61 127 0.0 6.0 0.00 0.00 0.00 47 1026.1
20220523172303 60 132 0.0 7.0 0.00 0.00 0.00 49 1026.2
20220523171803 60 182 0.0 0.0 0.00 0.00 0.00 48 1026.3
20220523171303 60 182 0.0 0.0 0.00 0.00 0.00 46 1026.3
20220523170803 61 147 3.0 3.0 0.00 0.00 0.00 47 1026.3
20220523170303 61 185 0.0 7.0 0.00 0.00 0.00 46 1026.4
20220523165803 61 225 2.0 2.0 0.00 0.00 0.00 45 1026.4
20220523165304 61 139 0.0 0.0 0.00 0.00 0.00 46 1026.5
20220523164803 60 139 0.0 0.0 0.00 0.00 0.00 46 1026.6
20220523164305 61 139 0.0 0.0 0.00 0.00 0.00 45 1026.7
20220523163803 60 139 0.0 0.0 0.00 0.00 0.00 49 1026.8
20220523163303 60 139 0.0 5.0 0.00 0.00 0.00 45 1026.8
20220523162840 60 165 6.0 8.0 0.00 0.00 0.00 46 1026.9
20220523162803 60 165 6.0 8.0 0.00 0.00 0.00 46 1026.9
20220523162303 60 178 0.0 0.0 0.00 0.00 0.00 45 1026.9
20220523161803 60 178 0.0 5.0 0.00 0.00 0.00 47 1026.9
20220523161303 60 270 0.0 0.0 0.00 0.00 0.00 48 1027.0
20220523160803 59 270 0.0 0.0 0.00 0.00 0.00 48 1027.1
20220523160303 60 270 0.0 0.0 0.00 0.00 0.00 47 1027.2
20220523155803 60 289 4.0 9.0 0.00 0.00 0.00 48 1027.3
20220523155303 59 257 0.0 8.0 0.00 0.00 0.00 46 1027.4
20220523154803 59 254 0.0 8.0 0.00 0.00 0.00 46 1027.4
20220523154303 59 241 0.0 0.0 0.00 0.00 0.00 46 1027.4
20220523153803 59 210 4.0 4.0 0.00 0.00 0.00 49 1027.5
20220523153303 59 257 0.0 0.0 0.00 0.00 0.00 48 1027.5
20220523152803 59 257 0.0 7.0 0.00 0.00 0.00 49 1027.5
20220523152304 59 246 0.0 0.0 0.00 0.00 0.00 50 1027.6
20220523151803 59 246 0.0 6.0 0.00 0.00 0.00 50 1027.7
20220523151303 59 171 0.0 1.0 0.00 0.00 0.00 52 1027.7
20220523150803 59 208 0.0 0.0 0.00 0.00 0.00 52 1027.7
20220523150303 58 208 0.0 0.0 0.00 0.00 0.00 51 1027.8
20220523145803 58 208 0.0 0.0 0.00 0.00 0.00 52 1027.9
20220523145508 57 208 0.0 3.0 0.00 0.00 0.00 54 1027.9
20220523145303 57 208 0.0 3.0 0.00 0.00 0.00 54 1027.9
20220523144803 57 208 0.0 0.0 0.00 0.00 0.00 56 1027.9
20220523144303 56 208 0.0 0.0 0.00 0.00 0.00 56 1028.0
20220523143803 56 208 0.0 0.0 0.00 0.00 0.00 56 1028.1
20220523143724 56 208 0.0 0.0 0.00 0.00 0.00 56 1028.1
20220523143303 56 208 0.0 0.0 0.00 0.00 0.00 56 1028.1
20220523142803 55 203 0.0 0.0 0.00 0.00 0.00 58 1028.1
20220523142305 55 203 0.0 0.0 0.00 0.00 0.00 59 1028.2
20220523141804 55 203 0.0 0.0 0.00 0.00 0.00 59 1028.2
20220523141304 55 203 0.0 3.0 0.00 0.00 0.00 60 1028.3
20220523140805 55 302 0.0 0.0 0.00 0.00 0.00 59 1028.3
20220523140304 55 302 0.0 0.0 0.00 0.00 0.00 59 1028.4
20220523140011 54 302 0.0 0.0 0.00 0.00 0.00 62 1028.5
20220523135804 54 302 0.0 0.0 0.00 0.00 0.00 62 1028.5
20220523135304 54 302 0.0 0.0 0.00 0.00 0.00 62 1028.5
20220523134804 53 302 0.0 0.0 0.00 0.00 0.00 63 1028.5
20220523134304 53 302 0.0 4.0 0.00 0.00 0.00 63 1028.5
20220523133805 53 194 0.0 3.0 0.00 0.00 0.00 64 1028.5
20220523133304 53 132 0.0 0.0 0.00 0.00 0.00 65 1028.5
20220523132804 53 132 0.0 0.0 0.00 0.00 0.00 65 1028.6
20220523132304 52 132 0.0 4.0 0.00 0.00 0.00 66 1028.6
20220523131938 50 180 0.0 0.0 0.00 0.00 0.00 69 1028.6
20220523131804 52 143 0.0 2.0 0.00 0.00 0.00 67 1028.7
20220523131304 52 143 0.0 2.0 0.00 0.00 0.00 67 1028.5
20220523130804 51 143 0.0 0.0 0.00 0.00 0.00 68 1028.7
20220523125503 51 151 0.0 6.0 0.00 0.00 0.00 68 1028.7
20220523125002 50 180 0.0 0.0 0.00 0.00 0.00 69 1028.6
20220523124502 50 180 0.0 0.0 0.00 0.00 0.00 70 1028.5
20220523124003 49 180 0.0 0.0 0.00 0.00 0.00 70 1028.5
20220523123503 49 180 0.0 0.0 0.00 0.00 0.00 72 1028.5
20220523123003 49 180 0.0 0.0 0.00 0.00 0.00 72 1028.4
20220523122638 48 180 0.0 0.0 0.00 0.00 0.00 73 1028.2
20220523122502 48 180 0.0 0.0 0.00 0.00 0.00 73 1028.2
20220523122108 48 180 0.0 0.0 0.00 0.00 0.00 73 1028.2
20220523122002 48 180 0.0 0.0 0.00 0.00 0.00 73 1028.3
20220523121503 48 180 0.0 0.0 0.00 0.00 0.00 73 1028.2
20220523121205 47 180 0.0 0.0 0.00 0.00 0.00 75 1028.1
20220523121002 47 180 0.0 0.0 0.00 0.00 0.00 75 1028.1
20220523120505 47 180 0.0 0.0 0.00 0.00 0.00 76 1028.2
20220523120003 46 180 0.0 0.0 0.00 0.00 0.00 76 1028.1
20220523115504 46 180 0.0 0.0 0.00 0.00 0.00 78 1028.1
20220523115042 45 180 0.0 0.0 0.00 0.00 0.00 81 1028.0
20220523115003 46 180 0.0 0.0 0.00 0.00 0.00 79 1028.1
20220523114502 45 180 0.0 0.0 0.00 0.00 0.00 81 1028.0
20220523114141 45 180 0.0 0.0 0.00 0.00 0.00 80 1028.0
20220523114003 45 180 0.0 0.0 0.00 0.00 0.00 80 1028.0
20220523113503 45 180 0.0 0.0 0.00 0.00 0.00 80 1028.1
20220523113003 45 180 0.0 0.0 0.00 0.00 0.00 80 1028.0
20220523112502 45 180 0.0 0.0 0.00 0.00 0.00 80 1028.0
20220523112306 45 180 0.0 0.0 0.00 0.00 0.00 79 1028.0
20220523112007 45 180 0.0 0.0 0.00 0.00 0.00 80 1028.0
20220523111502 45 180 0.0 0.0 0.00 0.00 0.00 79 1028.0
20220523111003 45 180 0.0 0.0 0.00 0.00 0.00 80 1028.0
20220523110653 45 180 0.0 0.0 0.00 0.00 0.00 80 1027.8
20220523110502 45 180 0.0 0.0 0.00 0.00 0.00 80 1028.0
20220523110121 45 180 0.0 0.0 0.00 0.00 0.00 80 1027.8
20220523110004 45 180 0.0 0.0 0.00 0.00 0.00 80 1027.8
20220523105502 45 180 0.0 0.0 0.00 0.00 0.00 80 1027.9
20220523105226 45 180 0.0 0.0 0.00 0.00 0.00 78 1028.0
20220523105216 46 180 0.0 0.0 0.00 0.00 0.00 78 1028.0
20220523105002 45 180 0.0 0.0 0.00 0.00 0.00 79 1027.9
20220523104502 45 180 0.0 0.0 0.00 0.00 0.00 78 1027.9
20220523104002 45 180 0.0 0.0 0.00 0.00 0.00 78 1028.0
20220523103502 46 180 0.0 0.0 0.00 0.00 0.00 78 1028.0
20220523103046 46 180 0.0 0.0 0.00 0.00 0.00 77 1028.1
20220523103004 45 180 0.0 0.0 0.00 0.00 0.00 78 1028.0
20220523102502 45 180 0.0 0.0 0.00 0.00 0.00 78 1028.1
20220523102003 45 180 0.0 0.0 0.00 0.00 0.00 78 1028.0
20220523101502 45 180 0.0 0.0 0.00 0.00 0.00 78 1028.0
20220523101048 45 180 0.0 0.0 0.00 0.00 0.00 78 1028.0
20220523101002 45 180 0.0 0.0 0.00 0.00 0.00 78 1028.0
20220523100502 45 180 0.0 0.0 0.00 0.00 0.00 78 1028.1
20220523100005 46 180 0.0 0.0 0.00 0.00 0.00 77 1028.2
20220523095502 46 180 0.0 0.0 0.00 0.00 0.00 77 1028.1
20220523095340 46 180 0.0 0.0 0.00 0.00 0.00 76 1028.2
20220523095002 46 180 0.0 0.0 0.00 0.00 0.00 76 1028.2
20220523094841 46 180 0.0 0.0 0.00 0.00 0.00 76 1028.1
20220523094502 46 180 0.0 0.0 0.00 0.00 0.00 76 1028.1
20220523094003 46 180 0.0 0.0 0.00 0.00 0.00 75 1028.2
20220523093955 47 180 0.0 0.0 0.00 0.00 0.00 74 1028.2
20220523093502 47 180 0.0 0.0 0.00 0.00 0.00 74 1028.2
20220523093002 47 180 0.0 0.0 0.00 0.00 0.00 74 1028.1
20220523092556 48 146 0.0 8.0 0.00 0.00 0.00 71 1028.0
20220523092502 47 180 0.0 0.0 0.00 0.00 0.00 74 1028.2
20220523092002 47 180 0.0 0.0 0.00 0.00 0.00 74 1028.1
20220523091503 47 180 0.0 0.0 0.00 0.00 0.00 74 1028.2
20220523091002 47 180 0.0 0.0 0.00 0.00 0.00 73 1028.2
20220523090505 47 180 0.0 6.0 0.00 0.00 0.00 73 1028.2
20220523090004 47 116 0.0 0.0 0.00 0.00 0.00 73 1028.2
20220523085502 48 116 0.0 0.0 0.00 0.00 0.00 72 1028.1
20220523085002 48 116 0.0 8.0 0.00 0.00 0.00 72 1028.0
20220523084503 48 174 5.0 10.0 0.00 0.00 0.00 72 1028.1
20220523084002 48 146 0.0 8.0 0.00 0.00 0.00 71 1028.0
20220523083503 48 164 0.0 9.0 0.00 0.00 0.00 72 1028.0
20220523083002 47 229 4.0 6.0 0.00 0.00 0.00 72 1028.0
20220523082502 47 208 0.0 6.0 0.00 0.00 0.00 72 1028.1
20220523082002 47 147 0.0 7.0 0.00 0.00 0.00 72 1028.1
20220523081503 48 202 0.0 9.0 0.00 0.00 0.00 72 1028.0
20220523081002 47 136 4.0 8.0 0.00 0.00 0.00 71 1028.1
20220523080942 47 182 3.0 7.0 0.00 0.00 0.00 71 1028.1
20220523080503 48 153 3.0 9.0 0.00 0.00 0.00 71 1028.1
20220523080003 47 182 3.0 7.0 0.00 0.00 0.00 71 1028.1
20220523075502 47 170 1.0 6.0 0.00 0.00 0.00 72 1028.1
20220523075002 47 144 0.0 7.0 0.00 0.00 0.00 72 1028.1
20220523074545 48 150 0.0 6.0 0.00 0.00 0.00 71 1027.9
20220523074502 47 127 0.0 6.0 0.00 0.00 0.00 72 1028.0
20220523074002 47 185 4.0 7.0 0.00 0.00 0.00 72 1028.0
20220523073502 47 170 0.0 6.0 0.00 0.00 0.00 72 1027.9
20220523073002 47 177 0.0 5.0 0.00 0.00 0.00 72 1027.9
20220523072502 48 150 0.0 3.0 0.00 0.00 0.00 72 1027.9
20220523072002 48 150 0.0 6.0 0.00 0.00 0.00 71 1027.9
20220523071503 48 165 0.0 8.0 0.00 0.00 0.00 71 1027.8
20220523071028 44 331 0.0 0.0 0.00 0.00 0.00 83 1027.9
20220523071002 48 147 0.0 2.0 0.00 0.00 0.00 71 1027.9
20220523070502 48 151 0.0 5.0 0.00 0.00 0.00 71 1027.9
20220523070035 48 185 0.0 7.0 0.00 0.00 0.00 71 1027.9
20220523070004 48 185 0.0 7.0 0.00 0.00 0.00 71 1027.9
20220523065502 48 150 3.0 7.0 0.00 0.00 0.00 71 1027.9
20220523065002 48 164 0.0 8.0 0.00 0.00 0.00 71 1027.9
20220523064502 48 175 0.0 4.0 0.00 0.00 0.00 71 1027.9
20220523064003 48 175 4.0 6.0 0.00 0.00 0.00 71 1027.9
20220523063502 48 151 0.0 5.0 0.00 0.00 0.00 71 1028.0
20220523063002 48 172 0.0 6.0 0.00 0.00 0.00 70 1028.0
20220523062504 47 178 4.0 7.0 0.00 0.00 0.00 71 1028.1
20220523062002 47 161 0.0 6.0 0.00 0.00 0.00 71 1028.1
20220523061504 46 160 4.0 5.0 0.00 0.00 0.00 74 1028.0
20220523061002 45 158 0.0 6.0 0.00 0.00 0.00 75 1028.0
20220523060503 45 172 3.0 5.0 0.00 0.00 0.00 80 1028.0
20220523060005 44 146 0.0 3.0 0.00 0.00 0.00 82 1027.9
20220523055502 44 331 0.0 0.0 0.00 0.00 0.00 83 1027.9
20220523055127 44 331 0.0 0.0 0.00 0.00 0.00 82 1027.6
20220523055002 44 331 0.0 0.0 0.00 0.00 0.00 83 1027.9
20220523054502 44 331 0.0 0.0 0.00 0.00 0.00 84 1027.8
20220523054003 44 331 0.0 0.0 0.00 0.00 0.00 84 1027.7
20220523053502 44 331 0.0 0.0 0.00 0.00 0.00 83 1027.7
20220523053002 44 331 0.0 0.0 0.00 0.00 0.00 82 1027.6
20220523052502 45 331 0.0 0.0 0.00 0.00 0.00 82 1027.5
20220523052121 45 331 0.0 0.0 0.00 0.00 0.00 81 1027.5
20220523052002 45 331 0.0 0.0 0.00 0.00 0.00 81 1027.5
20220523051620 45 331 0.0 0.0 0.00 0.00 0.00 81 1027.4
20220523051502 45 331 0.0 0.0 0.00 0.00 0.00 81 1027.4
20220523051002 45 331 0.0 0.0 0.00 0.00 0.00 81 1027.3
20220523050533 46 331 0.0 0.0 0.00 0.00 0.00 81 1027.3
20220523050502 46 331 0.0 0.0 0.00 0.00 0.00 81 1027.3
20220523050300 46 331 0.0 0.0 0.00 0.00 0.00 77 1027.2
20220523050004 46 331 0.0 0.0 0.00 0.00 0.00 77 1027.2
20220523045505 46 331 0.0 0.0 0.00 0.00 0.00 77 1027.2
20220523045040 47 331 0.0 0.0 0.00 0.00 0.00 76 1027.1
20220523045002 47 331 0.0 0.0 0.00 0.00 0.00 76 1027.1
20220523044502 47 331 0.0 0.0 0.00 0.00 0.00 76 1027.0
20220523044004 47 331 0.0 0.0 0.00 0.00 0.00 76 1027.0
20220523043618 47 331 0.0 0.0 0.00 0.00 0.00 75 1027.0
20220523043502 47 331 0.0 0.0 0.00 0.00 0.00 75 1027.0
20220523043002 47 331 0.0 0.0 0.00 0.00 0.00 76 1027.0
20220523042505 47 331 0.0 0.0 0.00 0.00 0.00 76 1027.0
20220523042002 47 331 0.0 0.0 0.00 0.00 0.00 76 1027.0
20220523041502 47 331 0.0 0.0 0.00 0.00 0.00 76 1026.9
20220523041002 47 331 0.0 0.0 0.00 0.00 0.00 76 1026.9
20220523040502 48 331 0.0 0.0 0.00 0.00 0.00 75 1026.8
20220523040003 48 331 0.0 0.0 0.00 0.00 0.00 73 1026.8
20220523035502 48 331 0.0 0.0 0.00 0.00 0.00 73 1026.8
20220523035002 48 331 0.0 0.0 0.00 0.00 0.00 72 1026.8
20220523034502 49 331 0.0 0.0 0.00 0.00 0.00 71 1026.7